STARLINK-1846 (47136 NORAD) Tracking and Keplerian Element Data
This shows tracking and keplerian element data for the satellite.
Feedback or suggestion? Click here.
Element | Value |
Catalog | 47136 |
Name | STARLINK-1846 |
Epoch Orbit | 1574 |
Epoch Day | 60.91667824 |
Epoch Year | 2021 |
RAAN | 253.7502 |
Inclination | 53.0529 |
Eccentricity | 0.0002328 |
Argument of Perigee | 82.0967 |
Mean Anonmoly | 283.8363 |
Mean Motion | 15.06385006 |
Decay Rate | 0.00024969 |
L1 | 1 47136U 20088Q 21060.91667824 .00024969 00000-0 16899-2 0 9996 |
L2 | 2 47136 53.0529 253.7502 0002328 82.0967 283.8363 15.06385006 15742 |
Live tracking and technical data element details for STARLINK-1846 (NORAD 47136). STARLINK-1846 can be tracked NOW for your location showing map with azimuth and elevation plus other details from your city location.
Track the satellite on the map from your city or location and see movement details for azimuth, elevation, latitude, longitude, range, height, and movement on the map or in text.
IsCatalogInMostPopularTable: catalog: 47136, numindb: 27
Update: records affected: 1
GetName: 47136 STARLINK-1846
Hit Count: updated at: Tue, 02 Mar 2021 13:53:35 GMT